Tracking 28081 objects as of 26-Sep-2023
HD Live streaming from Space Station
objects crossing your sky now

METEOR PRIRODA

Track METEOR PRIRODA now!
10-day predictions
METEOR PRIRODA is classified as:


NORAD ID: 12585
Int'l Code: 1981-065A
Perigee: 471.6 km
Apogee: 484.9 km
Inclination: 97.6 °
Period: 94.0 minutes
Semi major axis: 6849 km
RCS: 4.6163 m2 (large)
Launch date: July 10, 1981
Source: Commonwealth of Independent States (former USSR) (CIS)
Launch site: TYURATAM MISSILE AND SPACE COMPLEX (TTMTR)
Your satellite tracking list
Your tracking list is empty




NASA's NSSDC Master Catalog

Two Line Element Set (TLE):
1 12585U 81065A   23268.77669612  .00015414  00000-0  50697-3 0  9991
2 12585  97.5741 286.1340 0009696 304.9482  55.0847 15.31578150305193
Source of the keplerian elements: AFSPC